Location: Unspecified
(0.0000°N, 0.0000°E)
Time: 11:25:04
(UTC+00:00)

Tiros 1 - Pass Details

Date: 26 November 2019
Orbit: 630 x 664 km, 48.4° (Epoch: 07 December)

Event Time Altitude Azimuth Distance (km) Brightness Sun altitude
Rises 20:09:37 0° 321° (NW) 2,927 10.7 -32.9°
Enters shadow 20:09:51 - 321° (NW) 2,838 10.6 -32.9°
Reaches altitude 10° 20:11:55 10° 321° (NW) 2,026 - -33.4°
Maximum altitude 20:16:36 89° 240° (WSW) 650 - -34.5°
Drops below altitude 10° 20:21:21 10° 142° (SE) 2,056 - -35.5°
Sets 20:23:42 0° 141° (SE) 2,974 - -36.1°
